Theta_e
304 303 303 303 304 304 307 308 308 307 304 304 308 309 309 311 309 310 310 309 311 311 314 320 318 321 322 323 317 317 317 320 322 324 322 316 316 319 326 331 333 334 335 334 339
302 302 303 303 302 303 305 308 308 309 308 303 304 308 310 309 309 310 309 309 310 312 313 314 319 321 321 321 319 315 316 320 321 320 316 315 315 315 322 329 336 335 335 337 338
301 301 301 301 302 302 302 303 307 307 308 306 304 307 310 309 308 308 309 310 309 310 310 313 318 321 321 320 322 319 317 319 319 319 316 315 315 316 319 318 321 337 337 338 339
299 298 299 300 300 301 301 303 303 305 307 308 305 305 309 308 307 314 312 312 311 310 312 314 319 320 318 320 320 322 320 320 319 316 316 315 315 315 316 316 316 335 337 338 339
297 298 299 298 298 300 301 302 302 304 306 308 305 304 307 308 308 311 312 313 312 312 312 314 317 317 318 317 317 320 320 320 319 320 319 315 315 315 316 317 318 331 338 338 337
296 296 297 297 297 296 298 301 303 304 306 307 307 305 306 308 306 309 312 313 314 313 312 311 315 315 316 318 318 318 318 318 319 319 318 314 314 317 317 316 319 334 337 337 337
298 298 298 298 298 295 296 301 302 303 304 305 307 306 306 304 308 311 311 312 313 314 313 311 312 314 313 313 316 319 320 319 317 316 318 317 316 313 319 317 316 328 336 335 334
298 298 299 298 299 298 298 299 302 303 304 304 306 306 306 305 310 310 310 311 312 313 313 311 313 312 310 313 311 315 317 319 316 313 314 318 321 316 317 316 318 317 316 332 335
298 298 298 298 299 299 295 296 300 302 303 303 304 306 306 306 306 309 311 310 311 311 314 313 311 309 309 311 313 312 316 312 313 315 315 317 320 318 320 319 316 317 316 316 324
297 298 298 298 299 299 295 297 300 301 301 304 303 305 306 307 306 307 309 311 312 311 312 313 312 310 307 310 314 312 310 312 313 312 315 315 316 315 315 317 318 317 315 316 316
300 297 297 298 299 299 296 299 301 301 303 303 303 306 306 306 307 307 309 310 310 311 312 313 312 311 309 307 306 309 312 311 310 308 308 311 314 313 314 312 311 312 313 314 315
299 300 298 298 299 299 295 300 300 300 303 302 303 304 306 306 307 307 306 309 310 309 309 312 311 310 311 308 307 307 307 307 308 308 307 307 309 310 309 309 312 313 313 313 313
298 299 299 298 298 299 295 299 300 300 300 302 302 303 305 306 307 307 308 309 308 308 309 311 311 310 310 311 310 308 307 306 308 306 305 306 304 306 306 307 308 310 313 313 313
298 299 299 298 298 298 297 299 299 299 290 299 303 303 303 306 306 307 308 308 308 308 309 309 309 311 311 311 309 310 307 307 308 305 304 303 303 303 304 305 305 308 309 311 311
299 299 300 298 299 298 299 298 297 299 291 298 304 303 304 305 305 307 307 308 308 307 307 308 308 309 310 311 309 310 307 308 307 306 305 304 302 302 302 303 303 304 306 308 309
298 299 300 298 298 298 298 296 298 289 287 300 303 304 305 305 305 307 307 307 307 307 306 306 307 307 307 309 309 308 307 306 305 304 304 303 303 302 302 304 304 304 306 306 307
298 300 299 298 298 298 296 297 289 288 290 296 303 302 304 305 305 307 307 308 306 306 307 307 307 308 307 309 309 309 305 304 305 301 303 302 302 303 302 303 303 306 304 305 305
299 300 299 298 298 297 297 290 286 282 283 298 301 302 305 304 304 306 306 307 306 304 305 305 304 307 308 308 310 308 306 305 305 305 306 303 304 302 305 305 305 305 303 303 304
300 299 299 298 297 296 296 286 287 286 297 300 301 298 301 304 303 305 304 303 305 305 304 306 306 307 308 309 308 310 307 305 306 297 303 305 304 305 306 305 303 302 302 301 301
300 299 299 298 296 297 290 291 286 295 300 298 295 300 294 300 302 304 304 303 305 304 305 305 306 306 307 308 308 309 307 307 304 302 303 306 306 303 307 306 305 302 300 299 300
299 298 298 297 297 296 287 284 290 297 298 297 297 296 300 299 301 302 304 301 301 303 305 304 302 307 307 307 308 309 307 308 306 305 305 305 304 305 307 305 305 302 301 299 298
298 297 297 297 293 291 291 287 296 296 298 298 299 299 298 303 296 302 302 300 299 300 305 304 304 305 307 306 306 306 309 307 305 302 303 307 305 304 303 303 303 301 300 298 298
296 296 296 296 288 290 292 290 296 295 297 298 301 300 301 302 301 300 300 298 299 302 303 304 299 297 302 303 304 307 307 309 308 309 306 304 304 304 303 302 301 300 299 298 297
295 294 295 295 296 292 293 291 293 297 297 297 299 300 301 301 298 299 301 300 300 301 303 303 300 294 298 299 302 305 306 306 306 308 308 308 306 306 304 304 301 299 299 298 297
297 295 295 293 292 292 295 296 297 296 297 297 299 298 299 300 299 296 300 300 299 300 301 296 296 299 297 298 301 300 304 305 305 299 304 302 303 303 302 304 303 303 299 297 297
296 296 296 295 295 296 295 293 297 296 296 297 297 297 297 292 298 299 299 298 298 298 300 297 291 292 291 298 301 299 300 300 298 297 300 299 300 300 302 303 304 302 299 297 297
296 296 296 296 296 293 292 296 296 296 296 295 297 297 296 295 296 297 297 298 298 297 297 294 289 287 290 292 290 291 295 299 302 301 298 297 299 302 304 302 303 301 301 300 298
Wind_Speed
19 19 17 20 23 21 20 16 20 18 15 19 19 16 15 12 12 13 19 18 17 15 10 9 22 17 14 8 4 4 1 4 4 6 3 3 3 3 4 7 6 2 15 14 32
16 15 16 18 17 20 19 14 11 19 17 14 18 13 10 10 12 17 15 16 17 13 11 11 16 24 5 10 3 6 4 6 1 3 4 5 1 6 5 8 9 11 11 32 34
15 16 17 17 19 19 19 28 10 13 16 14 14 16 10 5 8 11 10 14 17 16 14 10 12 20 8 8 9 4 5 4 3 4 1 3 0 3 3 5 5 15 31 32 35
16 14 14 16 16 18 16 18 20 9 12 13 13 16 11 6 5 1 1 5 19 16 15 15 14 12 6 6 8 5 8 3 3 5 3 2 1 2 4 3 4 10 25 29 34
13 12 12 14 15 17 16 13 19 18 10 11 12 15 13 9 10 2 2 2 10 19 23 17 16 8 10 7 10 11 6 8 7 13 10 6 2 2 2 3 1 9 28 29 30
12 13 10 13 16 17 17 15 10 15 10 13 12 12 16 6 9 9 8 4 4 15 22 24 13 8 11 7 11 6 14 19 15 9 6 5 3 5 1 8 6 11 26 24 28
14 13 12 15 16 15 14 16 13 11 12 8 9 14 14 17 7 11 10 6 5 7 14 24 8 14 6 5 10 8 4 6 9 8 5 10 4 7 11 7 3 8 16 19 24
12 12 14 11 14 15 13 14 14 13 14 6 12 13 8 18 14 12 10 11 11 6 8 16 15 11 6 8 5 8 2 3 8 7 5 6 5 6 10 11 14 11 10 16 21
14 14 13 12 12 13 15 13 12 12 7 8 13 8 5 10 21 13 12 9 11 9 13 15 16 8 7 7 3 3 6 6 5 5 7 6 3 9 11 9 9 9 17 14 16
14 14 15 14 16 12 14 10 9 11 6 8 11 5 6 11 20 20 14 11 8 9 9 9 6 4 3 9 12 7 6 8 5 7 13 15 6 3 6 13 17 16 13 18 17
16 14 17 14 15 9 10 8 1 0 8 3 7 6 3 6 11 17 20 10 9 7 4 5 3 6 8 6 2 6 5 6 3 3 4 10 9 8 8 9 7 6 11 13 13
15 13 16 13 12 7 6 3 3 6 2 12 9 11 3 6 9 12 21 14 7 9 3 3 5 6 6 6 5 4 7 6 2 4 5 2 4 4 6 7 14 15 16 13 13
12 12 11 9 10 6 2 4 6 7 1 3 17 6 1 2 5 14 21 12 5 5 4 4 5 11 8 6 6 5 5 4 3 2 2 3 4 4 6 9 13 18 20 19 18
12 9 8 6 6 4 2 1 5 5 4 2 5 6 9 3 1 11 22 14 4 7 5 3 4 9 4 4 5 4 6 5 5 2 3 2 4 4 6 8 7 23 22 22 20
11 9 7 5 3 2 2 3 3 1 3 5 1 1 9 5 6 10 18 14 6 6 5 5 3 3 2 3 4 4 5 4 3 3 2 1 3 7 2 6 8 10 16 19 18
11 8 9 8 6 3 3 2 2 6 4 4 5 1 5 2 1 12 18 7 4 4 4 6 1 6 8 4 5 6 5 6 4 3 2 6 5 5 4 6 1 2 14 17 18
10 9 9 8 4 6 0 3 5 5 3 4 1 1 5 4 0 4 6 5 4 5 3 1 0 1 5 5 2 5 5 2 2 2 5 3 3 8 6 5 3 7 12 12 12
10 11 10 8 3 2 4 5 5 3 5 3 2 0 5 4 3 2 6 4 1 3 4 5 1 6 3 4 6 5 6 5 6 3 3 3 5 5 3 8 16 18 12 9 7
16 15 13 9 4 6 3 4 6 6 3 2 3 3 2 2 3 3 2 6 5 4 4 3 2 1 3 3 9 4 3 4 5 2 3 3 4 1 3 6 12 14 10 8 6
22 18 14 8 7 9 5 3 3 3 4 4 3 3 3 3 2 4 7 2 4 5 3 1 2 3 2 2 1 5 6 2 2 3 2 3 2 3 1 3 4 5 7 6 4
25 8 12 7 10 4 3 6 4 2 3 2 2 2 4 4 4 3 4 3 6 2 7 4 2 2 1 3 2 3 3 3 3 3 3 2 2 3 5 6 8 7 5 4 3
10 3 13 14 4 2 2 4 2 4 1 2 2 3 5 5 4 2 3 3 6 2 7 3 3 2 2 3 4 0 1 4 3 4 2 2 3 4 5 8 9 8 7 5 1
6 6 14 8 3 1 2 3 2 2 3 1 2 2 1 2 5 4 4 2 4 3 3 5 1 2 3 3 2 3 2 2 2 1 4 5 3 3 6 8 7 10 8 6 5
6 3 3 2 2 4 2 3 3 2 3 3 3 1 2 4 4 5 3 2 3 5 7 3 3 4 5 4 2 3 5 1 1 1 2 3 3 4 2 3 4 7 9 8 6
5 2 3 2 2 1 1 0 2 2 2 4 3 3 3 3 4 4 3 2 6 6 4 4 4 1 0 1 2 5 5 5 5 4 4 5 1 7 9 6 15 16 14 12 12
7 5 4 3 7 4 2 2 1 1 3 2 4 5 5 4 2 4 5 2 2 4 3 4 1 2 5 7 3 1 3 4 3 2 5 2 7 10 18 13 11 18 17 16 15
9 12 4 3 3 2 2 1 1 1 6 7 4 7 11 6 10 13 13 11 6 4 2 3 4 3 3 5 5 5 3 4 4 4 5 5 8 2 4 8 19 22 21 20 18
Wind_Direction
297 299 309 304 298 289 278 270 252 249 251 237 238 245 254 253 251 242 235 236 230 235 243 203 217 245 231 211 249 245 295 235 195 152 204 6 326 43 29 99 80 102 160 168 169
310 301 298 299 301 290 289 280 272 246 246 240 232 236 239 246 252 256 251 231 214 211 209 218 203 213 200 214 339 207 191 216 244 169 187 124 34 322 35 68 50 83 127 152 167
323 313 304 301 293 295 294 274 278 256 244 240 228 222 223 240 269 262 242 223 208 213 213 204 203 193 164 185 219 314 202 235 109 35 250 160 225 25 120 36 33 154 147 158 170
322 316 307 303 302 303 298 265 268 278 246 230 230 213 215 201 222 152 88 185 204 200 191 179 176 161 146 163 210 260 245 342 30 7 319 241 145 69 67 122 16 171 166 166 176
330 323 317 316 313 304 307 287 271 284 256 232 218 212 207 211 228 100 263 207 202 208 203 182 173 186 175 177 211 258 272 305 323 305 301 195 195 236 242 333 31 173 180 176 179
338 339 327 325 319 303 300 301 273 253 264 233 208 200 205 209 232 248 193 172 175 191 205 199 196 176 167 180 177 216 251 274 301 282 263 216 212 184 183 139 93 153 180 187 187
320 322 319 321 324 320 299 299 282 263 255 228 225 196 206 214 191 190 208 186 162 160 195 197 177 198 168 164 211 197 176 299 302 244 237 189 211 211 210 223 256 171 190 195 197
323 324 319 322 322 323 310 293 288 262 239 236 231 184 219 209 165 192 191 202 184 167 167 180 188 212 178 131 205 171 178 180 264 229 243 177 241 231 215 217 234 224 202 209 205
309 314 318 317 332 319 319 297 283 271 212 229 217 176 230 190 207 177 162 164 196 167 139 162 168 191 142 168 143 201 207 200 159 218 282 202 234 240 226 244 233 235 235 222 216
298 305 306 313 322 321 329 305 292 272 197 184 212 157 211 189 195 203 187 149 152 161 147 158 165 148 116 172 196 184 194 199 219 178 188 263 239 216 196 211 228 249 248 228 229
292 292 296 306 317 324 334 327 309 129 220 192 182 252 109 173 167 195 190 183 161 164 158 182 140 189 181 186 112 159 173 184 228 213 198 224 210 228 203 220 203 223 222 219 218
292 282 280 294 306 322 323 302 341 322 263 226 247 258 287 124 162 188 188 185 174 185 140 147 199 212 188 206 184 157 159 196 81 299 194 200 232 235 244 211 227 227 233 225 229
296 292 273 288 299 310 309 278 1 327 2 250 223 236 273 144 157 182 179 174 141 156 194 169 178 190 183 189 195 197 174 176 142 237 5 89 306 241 254 235 238 246 240 230 233
290 283 262 287 283 317 309 29 314 291 65 248 186 204 229 152 196 179 185 165 162 174 143 236 289 169 156 202 169 161 191 142 140 80 192 62 258 267 246 248 220 237 234 228 229
272 273 242 247 267 238 322 338 290 291 73 304 159 192 193 177 125 183 178 188 162 162 140 219 215 177 191 193 155 164 101 142 140 118 54 343 87 278 291 262 247 240 213 205 190
254 239 213 220 228 247 328 336 99 42 269 338 325 149 150 206 205 157 174 176 161 123 122 212 296 153 190 179 156 135 79 47 60 87 328 211 141 270 229 225 204 94 163 162 165
239 207 207 213 228 255 75 154 45 113 305 280 282 348 176 167 180 146 156 172 159 123 157 127 114 226 170 124 112 113 100 35 14 3 219 140 143 252 248 273 248 146 135 147 152
212 181 174 198 201 234 163 50 76 245 231 296 200 234 188 138 234 127 123 165 252 93 126 145 328 174 191 180 163 166 164 156 186 191 220 106 213 251 344 53 117 136 134 131 133
174 165 168 177 165 152 159 60 202 206 259 314 65 71 261 166 173 104 117 169 204 177 117 133 233 102 163 148 143 206 163 159 104 41 69 231 293 315 79 68 83 110 125 113 108
160 145 161 174 151 159 72 249 214 235 335 30 162 156 188 196 82 140 157 244 183 177 120 153 103 28 232 93 76 157 157 80 4 123 216 274 266 238 269 213 139 124 120 120 100
148 114 162 149 143 93 137 231 263 303 344 72 250 167 207 181 159 169 161 42 15 48 91 131 79 306 87 20 154 127 163 72 137 148 167 148 262 342 319 257 176 151 148 142 125
123 85 131 151 71 103 188 202 328 313 334 250 254 217 185 182 125 116 124 28 357 292 136 171 113 98 42 105 48 62 117 155 142 259 248 96 282 353 35 42 106 116 141 146 146
82 80 150 152 119 234 279 301 295 317 277 281 239 306 43 285 119 98 81 297 344 89 135 169 355 81 0 353 10 75 349 41 111 96 201 146 245 45 51 67 126 155 170 174 174
102 109 89 127 119 158 199 280 283 217 277 287 274 112 94 30 8 123 112 63 28 74 61 117 101 153 174 168 132 154 173 176 312 210 171 200 163 270 329 153 208 198 192 192 197
92 113 168 172 278 187 254 221 334 0 330 330 357 28 178 85 49 86 96 88 40 25 65 87 118 96 215 213 112 163 165 177 189 194 160 216 178 286 273 243 207 214 202 196 195
142 149 121 110 155 161 13 315 347 34 11 350 88 28 66 120 190 156 126 141 143 26 65 19 66 80 7 351 19 256 235 204 216 241 264 238 269 245 260 239 225 203 205 209 208
116 132 118 77 182 76 223 146 156 189 24 54 87 81 60 14 79 89 89 88 113 103 87 73 114 67 291 350 4 349 262 216 238 198 159 179 238 269 264 220 216 209 210 217 210